Find Starlink 38326

NORAD ID: 100438 Int'l Des: 2026-193 Owner: SPXS Country: US Constellation: starlink operational

現在のビュー

3D地球を読み込み中...

About Starlink 38326

Starlink 38326 (NORAD 100438) is a starlink constellation satellite launched Aug 22, 2026 by SPXS of US. with a mass of 575.00 kg.

次回通過

Passes for default location (London). Set your location on the main map for personalized predictions.

高度履歴

Loading altitude history...

軌道要素

1 A0438U 26193F 26250.69044335 .00455992 00000-0 20765-2 0 9991
2 A0438 69.9990 109.9442 0003324 301.9917 58.0962 15.82472432 3696
Epoch: Sep 7, 2026 • Age: 26 hours

現在のステータス

高度 332.2 km
遠地点 / 近地点 N/A
速度 7.71 km/s
衛星直下点 57.64°N, 18.5°W
打ち上げ日 Aug 22, 2026
運用期間 17 days
タイプ internet

技術仕様

分類 Payload
質量 575.00 kg
乾燥質量 530.00 kg
総質量 575.00 kg
長さ 0.30 m
直径 4.10 m
スパン 29.00 m
形状 Box + pan
製造者 SPXS
バスタイプ Starlink V2MO
フェーズステータス In Orbit
所有者/国 SPXS/US

Most Searched